London, United Kingdom

10:17 PM BST on March 28, 2017 (GMT +0100)
London

Weather History for 03772 - November, 2012

Change the Weather History Date:

Friday, November 16, 2012

  Actual Average Record
Temperature  
Mean Temperature 46 °F -  
Max Temperature 50 °F 47 °F - ()
Min Temperature 42 °F 37 °F - ()
Degree Days  
Heating Degree Days 19    
Moisture  
Dew Point 44 °F    
Average Humidity 92    
Maximum Humidity 100    
Minimum Humidity 83    
Precipitation  
Precipitation 0.00 in - - ()
Sea Level Pressure  
Sea Level Pressure 29.95 in    
Wind  
Wind Speed 4 mph ()    
Max Wind Speed 9 mph    
Max Gust Speed -    
Visibility 2.4 miles    
Events Rain    
T = Trace of Precipitation, MM = Missing Value Source: Averaged Metar Reports

Daily Weather History Graph

Daily Weather History Graph

Search for Another Location

Airport or City:

Trip Planner

Search our weather history database for the weather conditions in past years. The results will help you decide how hot, cold, wet, or windy it might be!

Date:

Astronomy

Nov. 16, 2012 Rise Set
Actual Time 7:21 AM GMT 4:10 PM GMT
Civil Twilight 6:44 AM GMT 4:47 PM GMT
Nautical Twilight 6:04 AM GMT 5:28 PM GMT
Astronomical Twilight 5:24 AM GMT 6:08 PM GMT
Moon 10:10 AM GMT (11/16) 6:46 PM GMT (11/16)
Length of Visible Light 10h 02m
Length of Day
8h 48m
Waxing Crescent, 10% of the Moon is Illuminated
Nov 16
Waxing Crescent
Nov 20
First Quarter
Nov 28
Full
Dec 6
Last Quarter
Dec 13
New

Hourly Weather History & Observations

Time (GMT) Temp. Windchill Dew Point Humidity Pressure Visibility Wind Dir Wind Speed Gust Speed Precip Events Conditions
12:20 AM 42.8 °F 41.1 °F 39.2 °F 87% 30.09 in - SSE 3.5 mph - N/A   Haze
12:50 AM 42.8 °F - 39.2 °F 87% 30.09 in - Calm Calm - N/A   Haze
1:20 AM 42.8 °F - 39.2 °F 87% 30.06 in - South 2.3 mph - N/A   Haze
1:50 AM 42.8 °F - 39.2 °F 87% 30.06 in - Calm Calm - N/A   Haze
2:20 AM 42.8 °F 41.1 °F 41.0 °F 93% 30.06 in - SSE 3.5 mph - N/A   Haze
2:50 AM 44 °F - 40 °F 83% 30.06 in 4 mi SSE 3.5 mph - -   Light Haze
2:50 AM 42.8 °F 41.1 °F 41.0 °F 93% 30.06 in - SSE 3.5 mph - N/A   Haze
3:20 AM 42.8 °F 41.1 °F 41.0 °F 93% 30.06 in - South 3.5 mph - N/A   Haze
3:50 AM 42.8 °F 41.1 °F 41.0 °F 93% 30.06 in 3.1 mi South 3.5 mph - N/A   Overcast
4:20 AM 42.8 °F 41.1 °F 39.2 °F 87% 30.04 in 3.7 mi South 3.5 mph - N/A   Overcast
4:50 AM 42.8 °F 39.3 °F 39.2 °F 87% 30.04 in 3.7 mi South 5.8 mph - N/A   Overcast
5:20 AM 42.8 °F 40.1 °F 39.2 °F 87% 30.04 in 3.7 mi South 4.6 mph - N/A   Overcast
5:50 AM 43 °F - 40 °F 83% 30.06 in 4 mi SE 5.8 mph - -   Light Haze
5:50 AM 42.8 °F 39.3 °F 39.2 °F 87% 30.04 in 3.7 mi SSE 5.8 mph - N/A   Overcast
6:20 AM 42.8 °F 39.3 °F 39.2 °F 87% 30.04 in 2.5 mi SSE 5.8 mph - N/A   Haze
6:50 AM 42.8 °F 38.6 °F 39.2 °F 87% 30.04 in - SSE 6.9 mph - N/A   Haze
7:20 AM 42.8 °F 40.1 °F 41.0 °F 93% 30.04 in - SSE 4.6 mph - N/A   Haze
7:50 AM 42.8 °F 40.1 °F 39.2 °F 87% 30.04 in - ESE 4.6 mph - N/A   Haze
8:20 AM 42.8 °F 38.6 °F 41.0 °F 93% 30.04 in 2.2 mi SE 6.9 mph - N/A   Haze
8:50 AM 43 °F - 41 °F 90% 30.03 in 3 mi ESE 4.6 mph - -   Light Haze
8:50 AM 42.8 °F 39.3 °F 41.0 °F 93% 30.04 in 1.7 mi ESE 5.8 mph - N/A   Mostly Cloudy
9:20 AM 42.8 °F 40.1 °F 41.0 °F 93% 30.01 in 1.6 mi ESE 4.6 mph - N/A   Mostly Cloudy
9:50 AM 42.8 °F 41.1 °F 42.8 °F 100% 30.01 in 1.6 mi East 3.5 mph - N/A   Mostly Cloudy
10:20 AM 44.6 °F 41.4 °F 42.8 °F 93% 30.01 in 1.1 mi ESE 5.8 mph - N/A   Mostly Cloudy
10:50 AM 44.6 °F 42.2 °F 42.8 °F 93% 30.01 in 1.1 mi ESE 4.6 mph - N/A   Mostly Cloudy
11:20 AM 44.6 °F - 42.8 °F 93% 29.98 in 1.1 mi East 2.3 mph - N/A   Mostly Cloudy
11:50 AM 45 °F - 44 °F 93% 29.99 in 2 mi ESE 2.3 mph - -   Mist
11:50 AM 46.4 °F - 44.6 °F 93% 29.98 in 1.2 mi ESE 2.3 mph - N/A   Mostly Cloudy
12:20 PM 46.4 °F 45.2 °F 44.6 °F 93% 29.98 in 1.1 mi East 3.5 mph - N/A   Mostly Cloudy
12:50 PM 46.4 °F 43.5 °F 44.6 °F 93% 29.95 in 1.1 mi ENE 5.8 mph - N/A   Mostly Cloudy
1:20 PM 46.4 °F 44.3 °F 44.6 °F 93% 29.95 in 1.2 mi SE 4.6 mph - N/A   Mostly Cloudy
1:50 PM 46.4 °F 44.3 °F 46.4 °F 100% 29.92 in 1.4 mi ESE 4.6 mph - N/A   Overcast
2:20 PM 48.2 °F - 46.4 °F 93% 29.92 in 1.7 mi SE 4.6 mph - N/A   Mostly Cloudy
2:50 PM 48 °F - 46 °F 91% 29.91 in 3 mi ESE 5.8 mph - - Rain Rain
2:50 PM 48.2 °F - 46.4 °F 93% 29.92 in - ESE 5.8 mph - N/A   Haze
3:20 PM 48.2 °F - 46.4 °F 93% 29.92 in 1.7 mi ESE 6.9 mph - N/A   Haze
3:50 PM 48.2 °F - 46.4 °F 93% 29.89 in 1.1 mi ESE 8.1 mph - N/A   Mostly Cloudy
4:20 PM 48.2 °F - 46.4 °F 93% 29.89 in 0.9 mi SE 8.1 mph - N/A   Mostly Cloudy
4:50 PM 48.2 °F - 46.4 °F 93% 29.89 in 1.2 mi SE 9.2 mph - N/A   Mostly Cloudy
5:20 PM 48.2 °F - 46.4 °F 93% 29.86 in 1.5 mi SE 8.1 mph - N/A   Mostly Cloudy
5:50 PM 48 °F - 47 °F 96% 29.88 in 3 mi SE 5.8 mph - - Rain Drizzle
5:50 PM 48.2 °F - 46.4 °F 93% 29.86 in 1.9 mi SE 5.8 mph - N/A   Mostly Cloudy
6:20 PM 48.2 °F - 46.4 °F 93% 29.86 in 2.2 mi SE 6.9 mph - N/A   Mostly Cloudy
6:50 PM 48.2 °F - 46.4 °F 93% 29.86 in 2.5 mi SE 8.1 mph - N/A   Mostly Cloudy
7:20 PM 48.2 °F - 46.4 °F 93% 29.86 in - SE 9.2 mph - N/A   Mostly Cloudy
7:50 PM 48.2 °F - 46.4 °F 93% 29.83 in - SE 6.9 mph - N/A   Mostly Cloudy
8:20 PM 50.0 °F - 48.2 °F 94% 29.83 in - SE 6.9 mph - N/A   Mostly Cloudy
8:50 PM 49 °F - 47 °F 92% 29.81 in 4 mi SE 9.2 mph - -   Light Haze
8:50 PM 50.0 °F - 48.2 °F 94% 29.80 in - SE 8.1 mph - N/A   Mostly Cloudy
9:20 PM 50.0 °F - 46.4 °F 87% 29.80 in 3.7 mi SE 6.9 mph - N/A   Scattered Clouds
9:50 PM 48.2 °F - 46.4 °F 93% 29.80 in 3.1 mi SE 6.9 mph - N/A   Scattered Clouds
10:20 PM 48.2 °F - 46.4 °F 93% 29.80 in 3.1 mi Variable 3.5 mph - N/A   Mostly Cloudy
10:50 PM 48.2 °F - 48.2 °F 100% 29.80 in 3.7 mi SSE 5.8 mph - N/A   Mostly Cloudy
11:20 PM 50.0 °F - 48.2 °F 94% 29.77 in 3.7 mi SE 6.9 mph - N/A   Mostly Cloudy
11:50 PM 50 °F - 48 °F 91% 29.77 in 4 mi SE 5.8 mph - -   Mist
11:50 PM 50.0 °F - 48.2 °F 94% 29.77 in 3.7 mi SE 5.8 mph - N/A   Mostly Cloudy